N4TRF-13 Weather Reports


Display with metric or nautical units.
time (UTC)temp
F
wind
direction
speed
MPH
gust
MPH
rain 1hr
in
rain 24hr
in
rain mn
in
humidity
%
barometer
mb
20260510153206 78 88 3.0 6.0 0.00 0.00 0.00 76 1018.0
20260510152706 78 208 2.0 6.0 0.00 0.00 0.00 76 1018.0
20260510152206 77 271 2.0 5.0 0.00 0.00 0.00 77 1018.0
20260510151710 77 227 1.0 5.0 0.00 0.00 0.00 77 1018.0
20260510151206 77 24 2.0 6.0 0.00 0.00 0.00 77 1018.0
20260510150711 76 105 2.0 4.0 0.00 0.00 0.00 79 1018.0
20260510150206 76 187 1.0 3.0 0.00 0.00 0.00 81 1018.0
20260510145706 76 228 0.0 3.0 0.00 0.00 0.00 83 1018.0
20260510145206 76 206 1.0 4.0 0.00 0.00 0.00 82 1018.0
20260510144706 75 122 1.0 5.0 0.00 0.00 0.00 85 1018.0
20260510144208 74 178 1.0 4.0 0.00 0.00 0.00 85 1018.0
20260510143706 73 117 1.0 4.0 0.00 0.00 0.00 88 1018.0
20260510143206 73 245 4.0 7.0 0.00 0.00 0.00 87 1018.0
20260510142706 73 297 4.0 10.0 0.00 0.00 0.00 89 1018.0
20260510142206 73 50 4.0 7.0 0.00 0.00 0.00 89 1018.0
20260510141706 72 342 3.0 6.0 0.00 0.00 0.00 90 1018.0
20260510141205 71 329 2.0 6.0 0.00 0.00 0.00 90 1018.0
20260510140706 71 316 2.0 4.0 0.00 0.00 0.00 92 1018.0
20260510140206 71 325 1.0 4.0 0.00 0.00 0.00 93 1018.0
20260510135706 70 220 0.0 3.0 0.00 0.00 0.00 94 1018.0
20260510135206 70 163 1.0 4.0 0.00 0.00 0.00 93 1018.0
20260510134706 70 304 0.0 2.0 0.00 0.00 0.00 92 1018.0
20260510134206 70 137 0.0 0.0 0.00 0.00 0.00 93 1018.0
20260510133706 69 85 1.0 4.0 0.00 0.00 0.00 93 1018.0
20260510133206 68 33 0.0 2.0 0.00 0.00 0.00 94 1018.0
20260510132706 68 44 0.0 3.0 0.00 0.00 0.00 94 1018.0
20260510132206 67 26 0.0 3.0 0.00 0.00 0.00 94 1018.0
20260510131706 67 123 0.0 0.0 0.00 0.00 0.00 95 1018.0
20260510131207 66 63 0.0 0.0 0.00 0.00 0.00 97 1018.0
20260510130706 65 28 0.0 0.0 0.00 0.00 0.00 99 1018.0
20260510130206 63 127 0.0 0.0 0.00 0.00 0.00 100 1018.0
20260510125706 63 78 0.0 0.0 0.00 0.00 0.00 100 1018.0
20260510125206 61 111 0.0 0.0 0.00 0.00 0.00 100 1018.0
20260510124706 60 74 0.0 0.0 0.00 0.00 0.00 100 1018.0
20260510124206 60 59 0.0 0.0 0.00 0.00 0.00 100 1018.0
20260510123706 59 38 0.0 0.0 0.00 0.00 0.00 100 1018.0
20260510123206 59 17 0.0 0.0 0.00 0.00 0.00 100 1018.0
20260510122706 59 39 0.0 0.0 0.00 0.00 0.00 100 1017.0
20260510122206 59 138 0.0 0.0 0.00 0.00 0.00 100 1017.0
20260510121707 58 113 0.0 0.0 0.00 0.00 0.00 100 1017.0
20260510121206 57 129 0.0 0.0 0.00 0.00 0.00 100 1017.0
20260510120706 56 116 0.0 0.0 0.00 0.00 0.00 100 1017.0
20260510120206 55 137 0.0 0.0 0.00 0.00 0.00 100 1017.0
20260510115706 54 148 0.0 0.0 0.00 0.00 0.00 100 1017.0
20260510115206 54 155 0.0 0.0 0.00 0.00 0.00 100 1017.0
20260510114709 54 158 0.0 0.0 0.00 0.00 0.00 100 1017.0
20260510114206 53 159 0.0 0.0 0.00 0.00 0.00 100 1017.0
20260510113706 53 147 0.0 0.0 0.00 0.00 0.00 100 1017.0
20260510113206 52 148 0.0 0.0 0.00 0.00 0.00 100 1017.0
20260510112706 52 187 0.0 0.0 0.00 0.00 0.00 100 1017.0
20260510112206 52 110 0.0 0.0 0.00 0.00 0.00 100 1016.0
20260510111706 52 117 0.0 0.0 0.00 0.00 0.00 100 1016.0
20260510111206 52 117 0.0 0.0 0.00 0.00 0.00 100 1016.0
20260510110707 52 110 0.0 0.0 0.00 0.00 0.00 100 1016.0
20260510110206 52 153 0.0 0.0 0.00 0.00 0.00 100 1016.0
20260510105706 52 153 0.0 0.0 0.00 0.00 0.00 100 1016.0
20260510105206 52 159 0.0 0.0 0.00 0.00 0.00 100 1016.0
20260510104706 52 153 0.0 0.0 0.00 0.00 0.00 100 1016.0
20260510104206 52 204 0.0 0.0 0.00 0.00 0.00 100 1016.0
20260510103706 52 153 0.0 0.0 0.00 0.00 0.00 100 1016.0
20260510103206 52 153 0.0 0.0 0.00 0.00 0.00 100 1016.0
20260510102706 52 152 0.0 0.0 0.00 0.00 0.00 100 1016.0
20260510102206 52 148 0.0 0.0 0.00 0.00 0.00 100 1016.0
20260510101706 52 158 0.0 0.0 0.00 0.00 0.00 100 1016.0
20260510101208 52 150 0.0 0.0 0.00 0.00 0.00 100 1016.0
20260510100706 52 155 0.0 0.0 0.00 0.00 0.00 100 1016.0
20260510100207 52 153 0.0 0.0 0.00 0.00 0.00 100 1015.0
20260510095707 52 153 0.0 0.0 0.00 0.00 0.00 100 1015.0
20260510095206 52 131 0.0 0.0 0.00 0.00 0.00 100 1015.0
20260510094705 52 139 0.0 0.0 0.00 0.00 0.00 100 1015.0
20260510094206 52 137 0.0 0.0 0.00 0.00 0.00 100 1015.0
20260510093706 53 157 0.0 0.0 0.00 0.00 0.00 100 1015.0
20260510093206 53 97 0.0 0.0 0.00 0.00 0.00 100 1015.0
20260510092706 53 139 0.0 0.0 0.00 0.00 0.00 100 1015.0
20260510092206 53 155 0.0 0.0 0.00 0.00 0.00 100 1015.0
20260510091706 53 312 0.0 0.0 0.00 0.00 0.00 100 1015.0
20260510091206 53 285 0.0 0.0 0.00 0.00 0.00 100 1015.0
20260510090706 53 152 0.0 0.0 0.00 0.00 0.00 100 1015.0
20260510090206 53 161 0.0 0.0 0.00 0.00 0.00 100 1015.0
20260510085707 53 140 0.0 0.0 0.00 0.00 0.00 100 1015.0
20260510085206 53 122 0.0 0.0 0.00 0.00 0.00 100 1015.0
20260510084706 53 60 0.0 0.0 0.00 0.00 0.00 100 1015.0
20260510084206 53 52 0.0 0.0 0.00 0.00 0.00 100 1015.0
20260510083708 53 60 0.0 0.0 0.00 0.00 0.00 100 1015.0
20260510083206 53 119 0.0 0.0 0.00 0.00 0.00 100 1015.0
20260510082706 53 135 0.0 0.0 0.00 0.00 0.00 100 1015.0
20260510082206 53 148 0.0 0.0 0.00 0.00 0.00 100 1015.0
20260510081706 53 129 0.0 0.0 0.00 0.00 0.00 100 1015.0
20260510081206 53 148 0.0 0.0 0.00 0.00 0.00 100 1015.0
20260510080706 53 168 0.0 0.0 0.00 0.00 0.00 100 1015.0
20260510080206 53 161 0.0 0.0 0.00 0.00 0.00 100 1015.0
20260510075706 53 144 0.0 0.0 0.00 0.00 0.00 100 1015.0
20260510075207 54 128 0.0 0.0 0.00 0.00 0.00 100 1015.0
20260510074706 54 107 0.0 0.0 0.00 0.00 0.00 100 1015.0
20260510074206 54 95 0.0 0.0 0.00 0.00 0.00 100 1015.0
20260510073706 54 93 0.0 0.0 0.00 0.00 0.00 100 1015.0
20260510073207 55 252 0.0 0.0 0.00 0.00 0.00 100 1015.0
20260510072706 55 172 0.0 0.0 0.00 0.00 0.00 100 1015.0
20260510072206 55 155 0.0 0.0 0.00 0.00 0.00 100 1015.0
20260510071706 55 188 0.0 0.0 0.00 0.00 0.00 100 1015.0
20260510071206 55 249 0.0 0.0 0.00 0.00 0.00 100 1015.0
20260510070706 54 184 0.0 0.0 0.00 0.00 0.00 100 1015.0
20260510070206 54 199 0.0 0.0 0.00 0.00 0.00 100 1015.0
20260510065706 54 146 0.0 0.0 0.00 0.00 0.00 99 1015.0
20260510065206 54 165 0.0 0.0 0.00 0.00 0.00 100 1015.0
20260510064706 54 163 0.0 0.0 0.00 0.00 0.00 99 1015.0
20260510064206 54 162 0.0 0.0 0.00 0.00 0.00 99 1015.0
20260510063706 54 166 0.0 0.0 0.00 0.00 0.00 99 1015.0
20260510062719 54 160 0.0 0.0 0.00 0.00 0.00 99 1015.0
20260510062206 54 151 0.0 0.0 0.00 0.00 0.00 99 1015.0
20260510061707 54 225 0.0 0.0 0.00 0.00 0.00 99 1015.0
20260510061206 54 189 0.0 0.0 0.00 0.00 0.00 99 1015.0
20260510060706 54 135 0.0 0.0 0.00 0.00 0.00 99 1015.0
20260510060206 54 137 0.0 0.0 0.00 0.00 0.00 99 1015.0
20260510055706 54 127 0.0 0.0 0.00 0.00 0.00 99 1015.0
20260510055206 54 137 0.0 0.0 0.00 0.00 0.00 99 1015.0
20260510054706 54 147 0.0 0.0 0.00 0.00 0.00 99 1015.0
20260510054206 54 130 0.0 0.0 0.00 0.00 0.00 99 1015.0
20260510053706 55 126 0.0 0.0 0.00 0.00 0.00 99 1015.0
20260510053206 55 151 0.0 0.0 0.00 0.00 0.00 99 1015.0
20260510052706 55 157 0.0 0.0 0.00 0.00 0.00 98 1015.0
20260510052206 55 179 0.0 0.0 0.00 0.00 0.00 98 1015.0
20260510051706 55 159 0.0 0.0 0.00 0.00 0.00 98 1015.0
20260510051206 55 157 0.0 0.0 0.00 0.00 0.00 98 1015.0
20260510050706 55 135 0.0 0.0 0.00 0.00 0.00 98 1014.0
20260510050206 55 147 0.0 0.0 0.00 0.00 0.00 98 1014.0
20260510045706 55 149 0.0 0.0 0.00 0.00 0.00 98 1014.0
20260510045206 55 109 0.0 0.0 0.00 0.00 0.00 98 1014.0
20260510044706 56 149 0.0 0.0 0.00 0.00 0.00 98 1014.0
20260510044206 56 155 0.0 0.0 0.00 0.00 0.00 97 1014.0
20260510043707 56 147 0.0 0.0 0.00 0.00 0.00 97 1014.0
20260510043207 56 147 0.0 0.0 0.00 0.00 0.00 97 1014.0
20260510042706 56 149 0.0 0.0 0.00 0.00 0.00 97 1014.0
20260510042206 57 188 0.0 0.0 0.00 0.00 0.00 97 1014.0
20260510041707 57 120 0.0 0.0 0.00 0.00 0.00 97 1015.0
20260510041207 57 125 0.0 0.0 0.00 0.00 0.00 97 1015.0
20260510040708 57 166 0.0 0.0 0.00 0.00 0.00 97 1015.0
20260510040206 57 108 0.0 0.0 0.00 0.00 0.00 96 1015.0
20260510035710 58 166 0.0 0.0 0.00 0.00 0.00 96 1015.0
20260510035206 58 159 0.0 0.0 0.00 0.00 0.00 96 1015.0
20260510034706 58 164 0.0 0.0 0.00 0.00 0.00 96 1014.0
20260510034208 58 150 0.0 0.0 0.00 0.00 0.00 95 1015.0
20260510033706 58 130 0.0 0.0 0.00 0.00 0.00 95 1014.0
20260510033206 59 125 0.0 0.0 0.00 0.00 0.00 95 1014.0
20260510032706 59 147 0.0 0.0 0.00 0.00 0.00 95 1014.0
20260510032206 59 154 0.0 0.0 0.00 0.00 0.00 95 1014.0
20260510031706 60 201 0.0 0.0 0.00 0.00 0.00 94 1014.0
20260510031206 60 171 0.0 0.0 0.00 0.00 0.00 94 1014.0
20260510030706 60 157 0.0 0.0 0.00 0.00 0.00 94 1014.0
20260510030206 60 157 0.0 0.0 0.00 0.00 0.00 94 1014.0
20260510025706 60 157 0.0 0.0 0.00 0.00 0.00 93 1014.0
20260510025206 60 158 0.0 0.0 0.00 0.00 0.00 93 1014.0
20260510024706 61 158 0.0 0.0 0.00 0.00 0.00 92 1014.0
20260510024206 61 156 0.0 0.0 0.00 0.00 0.00 92 1014.0
20260510023706 61 150 0.0 0.0 0.00 0.00 0.00 92 1014.0
20260510023206 62 143 0.0 0.0 0.00 0.00 0.00 91 1014.0
20260510022708 62 170 0.0 0.0 0.00 0.00 0.00 91 1014.0
20260510022206 62 158 0.0 0.0 0.00 0.00 0.00 90 1014.0
20260510021706 63 157 0.0 0.0 0.00 0.00 0.00 90 1014.0
20260510021206 63 158 0.0 0.0 0.00 0.00 0.00 89 1014.0
20260510020706 63 153 0.0 0.0 0.00 0.00 0.00 88 1013.0
20260510020206 64 141 0.0 0.0 0.00 0.00 0.00 87 1013.0
20260510015706 64 174 0.0 0.0 0.00 0.00 0.00 86 1013.0
20260510015206 64 158 0.0 0.0 0.00 0.00 0.00 85 1013.0
20260510014706 65 157 0.0 0.0 0.00 0.00 0.00 84 1013.0
20260510014206 65 135 0.0 0.0 0.00 0.00 0.00 83 1013.0
20260510013707 66 139 0.0 0.0 0.00 0.00 0.00 80 1013.0
20260510013207 66 138 0.0 0.0 0.00 0.00 0.00 79 1013.0
20260510012706 67 234 0.0 0.0 0.00 0.00 0.00 79 1013.0
20260510012206 67 164 0.0 0.0 0.00 0.00 0.00 77 1013.0
20260510011706 68 158 0.0 0.0 0.00 0.00 0.00 75 1013.0
20260510011208 69 158 0.0 0.0 0.00 0.00 0.00 73 1013.0
20260510010706 69 158 0.0 0.0 0.00 0.00 0.00 72 1013.0
20260510010206 70 150 0.0 0.0 0.00 0.00 0.00 71 1013.0
20260510005706 71 157 0.0 0.0 0.00 0.00 0.00 71 1013.0
20260510005206 71 158 0.0 0.0 0.00 0.00 0.00 70 1013.0
20260510004707 72 143 0.0 0.0 0.00 0.00 0.00 69 1013.0
20260510004206 73 155 0.0 0.0 0.00 0.00 0.00 69 1012.0
20260510003706 73 156 0.0 0.0 0.00 0.00 0.00 66 1012.0
20260510003206 75 156 0.0 0.0 0.00 0.00 0.00 63 1012.0
20260510002706 75 155 0.0 0.0 0.00 0.00 0.00 59 1012.0
20260510002207 76 157 0.0 0.0 0.00 0.00 0.00 60 1012.0
20260510001706 77 143 0.0 0.0 0.00 0.00 0.00 60 1012.0
20260510001206 78 143 0.0 0.0 0.00 0.00 0.00 57 1012.0
20260510000706 78 142 0.0 0.0 0.00 0.00 0.00 52 1012.0
20260510000206 79 163 0.0 0.0 0.00 0.00 0.00 50 1012.0
20260509235706 80 150 0.0 0.0 0.00 0.00 0.00 50 1012.0
20260509235206 81 128 0.0 0.0 0.00 0.00 0.00 48 1012.0
20260509234706 81 124 0.0 0.0 0.00 0.00 0.00 49 1012.0
20260509234206 82 82 0.0 0.0 0.00 0.00 0.00 47 1012.0
20260509233707 82 45 0.0 0.0 0.00 0.00 0.00 44 1012.0
20260509233206 82 0 0.0 2.0 0.00 0.00 0.00 45 1012.0
20260509232707 83 305 1.0 4.0 0.00 0.00 0.00 46 1012.0
20260509232206 83 353 1.0 6.0 0.00 0.00 0.00 44 1012.0
20260509231706 85 351 1.0 4.0 0.00 0.00 0.00 41 1012.0
20260509231206 85 21 1.0 3.0 0.00 0.00 0.00 42 1012.0
20260509230707 87 201 0.0 3.0 0.00 0.00 0.00 40 1012.0
20260509230206 86 91 0.0 2.0 0.00 0.00 0.00 43 1012.0
20260509225706 85 282 0.0 2.0 0.00 0.00 0.00 43 1012.0
20260509225206 88 158 0.0 1.0 0.00 0.00 0.00 40 1012.0
20260509224706 87 8 1.0 4.0 0.00 0.00 0.00 41 1012.0
20260509224206 89 357 0.0 2.0 0.00 0.00 0.00 39 1012.0
20260509223706 87 150 1.0 4.0 0.00 0.00 0.00 41 1012.0
20260509223206 86 10 3.0 5.0 0.00 0.00 0.00 40 1012.0
20260509222706 88 338 2.0 6.0 0.00 0.00 0.00 38 1012.0
20260509222206 88 197 0.0 2.0 0.00 0.00 0.00 41 1012.0
20260509221706 88 154 0.0 3.0 0.00 0.00 0.00 41 1012.0
20260509221207 88 201 0.0 2.0 0.00 0.00 0.00 41 1012.0
20260509220707 87 159 0.0 2.0 0.00 0.00 0.00 41 1012.0
20260509220206 86 199 0.0 3.0 0.00 0.00 0.00 45 1012.0
20260509215706 84 341 3.0 6.0 0.00 0.00 0.00 45 1012.0
20260509215206 85 266 1.0 4.0 0.00 0.00 0.00 42 1012.0
20260509214706 86 230 1.0 4.0 0.00 0.00 0.00 44 1012.0
20260509214206 87 94 1.0 3.0 0.00 0.00 0.00 44 1012.0
20260509213706 87 161 2.0 6.0 0.00 0.00 0.00 43 1012.0
20260509213206 88 242 0.0 3.0 0.00 0.00 0.00 43 1012.0
20260509212706 88 259 1.0 4.0 0.00 0.00 0.00 45 1012.0
20260509212206 86 117 2.0 5.0 0.00 0.00 0.00 45 1012.0
20260509211708 86 37 1.0 5.0 0.00 0.00 0.00 45 1012.0
20260509211209 86 206 1.0 3.0 0.00 0.00 0.00 46 1012.0
20260509210706 87 32 4.0 6.0 0.00 0.00 0.00 43 1012.0
20260509210211 88 32 4.0 6.0 0.00 0.00 0.00 42 1012.0
20260509205706 89 23 3.0 7.0 0.00 0.00 0.00 41 1012.0
20260509205206 89 153 1.0 6.0 0.00 0.00 0.00 42 1012.0
20260509204706 88 12 4.0 7.0 0.00 0.00 0.00 45 1012.0
20260509204206 88 207 1.0 6.0 0.00 0.00 0.00 42 1012.0
20260509203706 86 154 1.0 4.0 0.00 0.00 0.00 45 1012.0
20260509203206 84 54 1.0 3.0 0.00 0.00 0.00 48 1012.0
20260509202706 83 241 2.0 4.0 0.00 0.00 0.00 47 1012.0
20260509202206 85 213 1.0 7.0 0.00 0.00 0.00 50 1012.0
20260509201706 85 238 1.0 4.0 0.00 0.00 0.00 48 1012.0
20260509201207 85 212 2.0 4.0 0.00 0.00 0.00 48 1012.0
20260509200706 85 331 2.0 5.0 0.00 0.00 0.00 45 1012.0
20260509200206 83 20 3.0 7.0 0.00 0.00 0.00 43 1012.0
20260509195706 82 185 3.0 7.0 0.00 0.00 0.00 47 1012.0
20260509195210 83 241 2.0 6.0 0.00 0.00 0.00 45 1012.0
20260509194706 84 249 2.0 6.0 0.00 0.00 0.00 45 1012.0
20260509194206 85 151 1.0 4.0 0.00 0.00 0.00 47 1012.0
20260509193707 85 82 3.0 7.0 0.00 0.00 0.00 52 1012.0
20260509193206 84 34 5.0 11.0 0.00 0.00 0.00 50 1012.0
20260509192707 85 285 1.0 5.0 0.00 0.00 0.00 47 1012.0
20260509192205 83 343 4.0 9.0 0.00 0.00 0.00 50 1012.0
20260509191706 83 33 2.0 7.0 0.00 0.00 0.00 51 1012.0
20260509191207 83 184 1.0 6.0 0.00 0.00 0.00 51 1012.0
20260509190706 81 239 3.0 7.0 0.00 0.00 0.00 53 1012.0
20260509190206 82 235 1.0 6.0 0.00 0.00 0.00 53 1012.0
20260509185706 80 39 3.0 7.0 0.00 0.00 0.00 55 1012.0
20260509185208 81 289 3.0 7.0 0.00 0.00 0.00 55 1012.0
20260509184706 81 234 2.0 7.0 0.00 0.00 0.00 54 1013.0
20260509184207 82 138 2.0 5.0 0.00 0.00 0.00 55 1013.0
20260509183706 79 21 5.0 7.0 0.00 0.00 0.00 56 1013.0
20260509183207 79 295 4.0 7.0 0.00 0.00 0.00 55 1013.0
20260509182706 82 310 1.0 5.0 0.00 0.00 0.00 53 1013.0
20260509182206 83 123 0.0 4.0 0.00 0.00 0.00 57 1013.0
20260509181706 82 119 2.0 6.0 0.00 0.00 0.00 57 1013.0
20260509181205 80 126 2.0 5.0 0.00 0.00 0.00 54 1013.0
20260509180706 80 261 2.0 8.0 0.00 0.00 0.00 60 1013.0
20260509180207 81 235 1.0 5.0 0.00 0.00 0.00 62 1013.0
20260509175706 81 125 0.0 3.0 0.00 0.00 0.00 59 1013.0
20260509175207 81 150 2.0 6.0 0.00 0.00 0.00 59 1013.0
20260509174706 79 252 2.0 7.0 0.00 0.00 0.00 62 1013.0
20260509174206 79 89 2.0 6.0 0.00 0.00 0.00 59 1013.0
20260509173706 80 223 1.0 4.0 0.00 0.00 0.00 60 1013.0
20260509173206 78 205 3.0 6.0 0.00 0.00 0.00 61 1013.0
20260509172706 78 298 3.0 7.0 0.00 0.00 0.00 61 1013.0
20260509172206 78 335 3.0 9.0 0.00 0.00 0.00 61 1013.0
20260509171711 81 55 0.0 3.0 0.00 0.00 0.00 60 1013.0
20260509171206 80 119 2.0 4.0 0.00 0.00 0.00 57 1013.0
20260509170706 81 88 2.0 5.0 0.00 0.00 0.00 59 1013.0
20260509170206 79 174 1.0 4.0 0.00 0.00 0.00 60 1013.0
20260509165706 77 31 2.0 4.0 0.00 0.00 0.00 64 1013.0
20260509165207 75 315 1.0 4.0 0.00 0.00 0.00 69 1013.0
20260509164706 74 254 1.0 4.0 0.00 0.00 0.00 67 1013.0
20260509164206 75 36 2.0 7.0 0.00 0.00 0.00 66 1013.0
20260509163706 78 248 1.0 4.0 0.00 0.00 0.00 64 1013.0
20260509163206 76 117 2.0 6.0 0.00 0.00 0.00 66 1013.0
20260509162707 78 131 0.0 3.0 0.00 0.00 0.00 63 1013.0
20260509162206 77 211 1.0 5.0 0.00 0.00 0.00 65 1013.0
20260509161706 76 133 1.0 3.0 0.00 0.00 0.00 68 1013.0
20260509161206 75 77 2.0 6.0 0.00 0.00 0.00 73 1013.0
20260509160707 76 345 3.0 10.0 0.00 0.00 0.00 68 1013.0
20260509160206 74 23 2.0 8.0 0.00 0.00 0.00 70 1013.0
20260509155707 74 6 2.0 8.0 0.00 0.00 0.00 72 1013.0
20260509154707 73 338 3.0 6.0 0.00 0.00 0.00 72 1013.0
20260509154207 73 294 2.0 4.0 0.00 0.00 0.00 72 1013.0
20260509153706 73 286 3.0 8.0 0.00 0.00 0.00 73 1012.0